When you browse on this site, cookies collect data to enhance your experience and personalize the content and advertising you see.
Visit our Privacy Policy to learn more. By continuing to use the site, you agree to this use of cookies and data.
  • In Hungary
  • List of Countries
  • For 7 days
  • Water Temperature
  • Weather Map
  • News
  • Weather Widgets
  • user-avatar
    Login

    Hourly Weather Saush

    Today, 18 October, Friday

    Time Temperature Precipitation Wind Pressure Humidity
    00:00 +8°C° 0 mm 6 mps 754 mmHg 90%
    01:00 +8°C° 0 mm 6 mps 754 mmHg 90%
    02:00 +8°C° 0 mm 5 mps 754 mmHg 91%
    03:00 +8°C° 0 mm 5 mps 753 mmHg 91%
    04:00 +8°C° 0 mm 5 mps 753 mmHg 91%
    05:00 +8°C° 0 mm 5 mps 753 mmHg 90%
    06:00 +8°C° 0 mm 5 mps 752 mmHg 90%
    07:00 +8°C° 0 mm 4 mps 752 mmHg 89%
    08:00 +8°C° 0 mm 4 mps 752 mmHg 89%
    09:00 +8°C° 0 mm 4 mps 752 mmHg 88%
    10:00 +8°C° 0.1 mm 4 mps 752 mmHg 89%
    11:00 +8°C° 0.1 mm 4 mps 751 mmHg 89%
    12:00 +8°C° 0.1 mm 4 mps 751 mmHg 89%
    13:00 +8°C° 1.3 mm 4 mps 751 mmHg 92%
    14:00 +9°C° 1.3 mm 3 mps 751 mmHg 94%
    15:00 +9°C° 1.3 mm 3 mps 751 mmHg 97%
    16:00 +9°C° 0.5 mm 3 mps 752 mmHg 96%
    17:00 +7°C° 0.5 mm 4 mps 752 mmHg 96%
    18:00 +7°C° 0.5 mm 4 mps 753 mmHg 95%
    19:00 +6°C° 0.1 mm 5 mps 753 mmHg 93%
    20:00 +5°C° 0.1 mm 5 mps 754 mmHg 91%
    21:00 +2°C° 0.1 mm 6 mps 754 mmHg 89%
    22:00 +2°C° 0 mm 6 mps 755 mmHg 88%
    23:00 +2°C° 0 mm 5 mps 755 mmHg 88%

    Tomorrow, 19 October, Saturday

    Time Temperature Precipitation Wind Pressure Humidity
    00:00 +2°C° 0 mm 5 mps 756 mmHg 87%
    01:00 +2°C° 0 mm 5 mps 756 mmHg 86%
    02:00 +1°C° 0 mm 5 mps 757 mmHg 85%
    03:00 +1°C° 0 mm 5 mps 757 mmHg 85%
    04:00 0°C° 0 mm 5 mps 758 mmHg 85%
    05:00 0°C° 0 mm 5 mps 758 mmHg 84%
    06:00 -1°C° 0 mm 5 mps 759 mmHg 84%
    07:00 -1°C° 0 mm 5 mps 759 mmHg 83%
    08:00 0°C° 0 mm 5 mps 760 mmHg 82%
    09:00 0°C° 0 mm 5 mps 760 mmHg 82%
    10:00 0°C° 0 mm 4 mps 761 mmHg 80%
    11:00 0°C° 0 mm 4 mps 761 mmHg 79%
    12:00 +1°C° 0 mm 4 mps 761 mmHg 78%
    13:00 +1°C° 0 mm 4 mps 761 mmHg 77%
    14:00 +3°C° 0 mm 4 mps 761 mmHg 77%
    15:00 +3°C° 0 mm 3 mps 761 mmHg 76%
    16:00 +2°C° 0 mm 3 mps 762 mmHg 79%
    17:00 +1°C° 0 mm 3 mps 762 mmHg 82%
    18:00 +2°C° 0 mm 2 mps 762 mmHg 85%
    19:00 +1°C° 0 mm 2 mps 762 mmHg 86%
    20:00 +1°C° 0 mm 2 mps 763 mmHg 86%
    21:00 -1°C° 0 mm 2 mps 763 mmHg 86%
    22:00 -1°C° 0 mm 2 mps 763 mmHg 87%
    23:00 -1°C° 0 mm 2 mps 763 mmHg 87%

    Day after tomorrow, 20 October, Sunday

    Time Temperature Precipitation Wind Pressure Humidity
    00:00 +1°C° 0 mm 1 mps 763 mmHg 87%
    01:00 +1°C° 0 mm 1 mps 763 mmHg 87%
    02:00 +1°C° 0 mm 1 mps 763 mmHg 88%
    03:00 +1°C° 0 mm 1 mps 763 mmHg 88%
    04:00 +1°C° 0 mm 1 mps 763 mmHg 88%
    05:00 +1°C° 0 mm 1 mps 763 mmHg 89%
    06:00 +1°C° 0 mm 1 mps 763 mmHg 89%
    07:00 +2°C° 0 mm 1 mps 763 mmHg 85%
    08:00 +3°C° 0 mm 1 mps 763 mmHg 82%
    09:00 +4°C° 0 mm 1 mps 763 mmHg 78%
    10:00 +4°C° 0 mm 2 mps 763 mmHg 77%
    11:00 +5°C° 0 mm 2 mps 763 mmHg 75%
    12:00 +5°C° 0 mm 3 mps 763 mmHg 74%
    13:00 +5°C° 0 mm 3 mps 763 mmHg 77%
    14:00 +5°C° 0 mm 3 mps 763 mmHg 79%
    15:00 +5°C° 0 mm 3 mps 763 mmHg 82%
    16:00 +5°C° 0 mm 3 mps 763 mmHg 84%
    17:00 +5°C° 0 mm 4 mps 762 mmHg 86%
    18:00 +5°C° 0 mm 4 mps 762 mmHg 88%
    19:00 +5°C° 0 mm 4 mps 762 mmHg 87%
    20:00 +5°C° 0 mm 4 mps 762 mmHg 87%
    21:00 +6°C° 0 mm 5 mps 762 mmHg 87%
    22:00 +6°C° 0 mm 5 mps 762 mmHg 87%
    23:00 +6°C° 0 mm 5 mps 761 mmHg 87%

    21 October, Monday

    Time Temperature Precipitation Wind Pressure Humidity
    00:00 +6°C° 0 mm 5 mps 761 mmHg 88%
    01:00 +5°C° 0 mm 6 mps 761 mmHg 87%
    02:00 +7°C° 0 mm 6 mps 761 mmHg 87%
    03:00 +7°C° 0 mm 6 mps 760 mmHg 87%
    04:00 +7°C° 0 mm 6 mps 760 mmHg 87%
    05:00 +7°C° 0 mm 6 mps 760 mmHg 87%
    06:00 +7°C° 0 mm 6 mps 760 mmHg 87%
    07:00 +7°C° 0 mm 6 mps 760 mmHg 86%
    08:00 +7°C° 0 mm 6 mps 759 mmHg 86%
    09:00 +8°C° 0 mm 6 mps 759 mmHg 86%
    10:00 +8°C° 0 mm 6 mps 759 mmHg 84%
    11:00 +9°C° 0 mm 6 mps 759 mmHg 82%
    12:00 +10°C° 0 mm 6 mps 759 mmHg 80%
    13:00 +10°C° 0 mm 6 mps 759 mmHg 80%
    14:00 +10°C° 0 mm 6 mps 758 mmHg 81%
    15:00 +10°C° 0 mm 6 mps 758 mmHg 81%
    16:00 +10°C° 0 mm 6 mps 758 mmHg 82%
    17:00 +10°C° 0 mm 6 mps 758 mmHg 82%
    18:00 +10°C° 0 mm 6 mps 758 mmHg 83%
    19:00 +10°C° 0 mm 6 mps 757 mmHg 84%
    20:00 +10°C° 0 mm 6 mps 757 mmHg 85%
    21:00 +9°C° 0 mm 6 mps 757 mmHg 86%
    22:00 +9°C° 0 mm 6 mps 756 mmHg 88%
    23:00 +9°C° 0 mm 6 mps 756 mmHg 89%

    22 October, Tuesday

    Time Temperature Precipitation Wind Pressure Humidity
    00:00 +9°C° 0 mm 6 mps 755 mmHg 90%
    01:00 +9°C° 0 mm 6 mps 755 mmHg 91%
    02:00 +8°C° 0 mm 6 mps 755 mmHg 92%
    03:00 +8°C° 0 mm 6 mps 754 mmHg 93%
    04:00 +8°C° 0 mm 6 mps 754 mmHg 93%
    05:00 +8°C° 0 mm 6 mps 754 mmHg 93%
    06:00 +8°C° 0 mm 6 mps 753 mmHg 93%
    07:00 +9°C° 0 mm 7 mps 753 mmHg 90%
    08:00 +9°C° 0 mm 7 mps 752 mmHg 87%
    09:00 +10°C° 0 mm 8 mps 752 mmHg 84%
    10:00 +10°C° 0 mm 8 mps 751 mmHg 79%
    11:00 +11°C° 0 mm 9 mps 751 mmHg 75%
    12:00 +12°C° 0 mm 9 mps 750 mmHg 70%
    13:00 +12°C° 0 mm 9 mps 750 mmHg 69%
    14:00 +12°C° 0 mm 9 mps 749 mmHg 69%
    15:00 +12°C° 0 mm 8 mps 748 mmHg 68%
    16:00 +12°C° 0 mm 8 mps 748 mmHg 70%
    17:00 +12°C° 0 mm 8 mps 747 mmHg 71%
    18:00 +12°C° 0 mm 7 mps 747 mmHg 73%
    19:00 +11°C° 0.3 mm 8 mps 746 mmHg 75%
    20:00 +11°C° 0.3 mm 8 mps 745 mmHg 78%
    21:00 +11°C° 0.3 mm 8 mps 744 mmHg 81%
    22:00 +11°C° 0.7 mm 8 mps 745 mmHg 83%
    23:00 +11°C° 0.7 mm 7 mps 745 mmHg 85%

    23 October, Wednesday

    Time Temperature Precipitation Wind Pressure Humidity
    00:00 +10°C° 0.7 mm 7 mps 745 mmHg 88%
    01:00 +9°C° 0.1 mm 7 mps 746 mmHg 85%
    02:00 +7°C° 0.1 mm 8 mps 747 mmHg 82%
    03:00 +6°C° 0.1 mm 8 mps 748 mmHg 79%
    04:00 +5°C° 0 mm 7 mps 749 mmHg 80%
    05:00 +4°C° 0 mm 7 mps 751 mmHg 80%
    06:00 +2°C° 0 mm 6 mps 752 mmHg 80%
    07:00 +3°C° 0 mm 6 mps 753 mmHg 78%
    08:00 +3°C° 0 mm 6 mps 754 mmHg 76%
    09:00 +3°C° 0 mm 7 mps 755 mmHg 73%
    10:00 +3°C° 0 mm 6 mps 756 mmHg 68%
    11:00 +4°C° 0 mm 6 mps 757 mmHg 63%
    12:00 +5°C° 0 mm 5 mps 757 mmHg 58%
    13:00 +5°C° 0 mm 5 mps 758 mmHg 59%
    14:00 +4°C° 0 mm 4 mps 758 mmHg 60%
    15:00 +4°C° 0 mm 4 mps 759 mmHg 62%
    16:00 +3°C° 0 mm 3 mps 759 mmHg 66%
    17:00 +2°C° 0 mm 3 mps 760 mmHg 70%
    18:00 +2°C° 0 mm 2 mps 760 mmHg 74%
    19:00 +3°C° 0 mm 1 mps 760 mmHg 76%
    20:00 +2°C° 0 mm 1 mps 760 mmHg 78%
    21:00 +1°C° 0 mm 0 mps 761 mmHg 80%
    22:00 +2°C° 0 mm 1 mps 761 mmHg 79%
    23:00 +2°C° 0 mm 1 mps 761 mmHg 79%
    Show more